This demonstration page uses our WeatherBlox Daily Observations layout. Learn more.

Left ArrowRight Arrow

39.01783, -85.05884

Hourly Observations for November 26, 2020

Temp ( °F °C ) Dew Point ( °F °C ) Humidity (%) Winds ( mph kmh ) Pressure ( in mb ) Visibility ( mi km ) Precip ( " mm )
12:52 am 00:52 Cloudy with Light Rain 53 11.7 48 8.9 83 83 SW 9 15 29.9 1013 10 16.0934 0.001 0.001
1:52 am 01:52 Cloudy 53 11.7 47 8.3 80 80 SW 10 17 29.91 1013 10 16.0934 0.001 0.001
2:52 am 02:52 Cloudy 53 11.7 47 8.3 80 80 WSW 12 19 29.93 1014 10 16.0934 0 0
3:52 am 03:52 Cloudy 52 11.1 47 8.3 83 83 SW 9 15 29.95 1014 10 16.0934 0 0
4:24 am 04:24 Cloudy 51 10.6 47 8.3 86 86 SW 10 17 29.97 1015 10 16.0934 0 0
4:52 am 04:52 Cloudy 51 10.6 47 8.3 86 86 SW 9 15 29.96 1015 10 16.0934 0 0
5:10 am 05:10 Cloudy 51 10.6 47 8.3 86 86 SW 10 17 29.99 1016 10 16.0934 0 0
5:36 am 05:36 Mostly Cloudy 50 10 46 7.8 86 86 SW 9 15 29.99 1016 10 16.0934 0 0
5:49 am 05:49 Mostly Cloudy 50 10 46 8 88 88 SW 8 13 30 1016 10 16.0934 0 0
5:52 am 05:52 Mostly Cloudy 50 10 47 8.3 89 89 SW 9 15 29.98 1015 10 16.0934 0 0
6:22 am 06:22 Cloudy 51 10.6 46 7.8 83 83 SW 10 17 30.01 1016 10 16.0934 0 0
6:52 am 06:52 Cloudy 50 10 46 7.8 86 86 WSW 9 15 30.01 1016 10 16.0934 0 0
6:59 am 06:59 Cloudy 50 10 46 7.8 86 86 WSW 10 17 30.03 1017 10 16.0934 0 0
7:52 am 07:52 Cloudy 50 10 46 7.8 86 86 WSW 9 15 30.03 1017 10 16.0934 0 0
8:52 am 08:52 Cloudy 50 10 46 7.8 86 86 WSW 7 11 30.05 1018 10 16.0934 0 0
9:52 am 09:52 Cloudy 50 10 46 7.8 86 86 WSW 7 11 30.07 1018 10 16.0934 0 0
10:52 am 10:52 Cloudy 52 11.1 46 7.8 80 80 WSW 8 13 30.08 1019 10 16.0934 0 0
11:52 am 11:52 Cloudy 53 11.7 46 7.8 77 77 NW 6 9 30.07 1018 10 16.0934 0 0
12:52 pm 12:52 Cloudy 51 10.6 45 7.2 80 80 W 6 9 30.06 1018 10 16.0934 0 0
1:52 pm 13:52 Cloudy with Light Rain 51 10.6 46 7.8 83 83 W 6 9 30.06 1018 8 12.87472 0.001 0.001
2:29 pm 14:29 Cloudy with Drizzle 51 10.6 47 8.3 86 86 WNW 6 9 30.07 1018 5 8.0467 0.001 0.001
2:52 pm 14:52 Cloudy 50 10 46 7.8 86 86 WNW 8 13 30.05 1018 10 16.0934 0.001 0.001
3:52 pm 15:52 Cloudy 50 10 46 7.8 86 86 W 6 9 30.06 1018 10 16.0934 0 0
4:52 pm 16:52 Cloudy 51 10.6 45 7.2 80 80 SW 6 9 30.07 1018 10 16.0934 0 0
5:08 pm 17:08 Cloudy 50 10 46 7.8 86 86 SSW 7 11 30.09 1019 10 16.0934 0 0
5:44 pm 17:44 Cloudy 50 10 45 7.2 83 83 SW 7 11 30.1 1019 10 16.0934 0 0
5:52 pm 17:52 Cloudy 50 10 46 7.8 86 86 SW 7 11 30.08 1019 10 16.0934 0 0
6:52 pm 18:52 Cloudy 49 9.4 45 7.2 86 86 SSW 3 6 30.09 1019 10 16.0934 0.001 0.001
7:52 pm 19:52 Cloudy 49 9.4 45 7.2 86 86 Calm 30.1 1019 10 16.0934 0 0
8:52 pm 20:52 Cloudy 49 9.4 45 7.2 86 86 SW 7 11 30.11 1020 10 16.0934 0 0
9:52 pm 21:52 Cloudy 49 9.4 44 6.7 83 83 WSW 5 7 30.11 1020 10 16.0934 0 0
10:52 pm 22:52 Cloudy 48 8.9 43 6.1 83 83 S 6 9 30.1 1019 10 16.0934 0 0
11:52 pm 23:52 Cloudy 48 8.9 41 5 77 77 SW 5 7 30.09 1019 10 16.0934 0 0

Powered by AerisWeather